TimePST,TemperatureF,Dew PointF,Humidity,Sea Level PressureIn,VisibilityMPH,Wind Direction,Wind SpeedMPH,Gust SpeedMPH,PrecipitationIn,Events,Conditions,WindDirDegrees,DateUTC
12:56 AM,42.1,30.9,65,29.83,10.0,ESE,4.6,-,N/A,,Partly Cloudy,110,2012-11-18 08:56:00
1:56 AM,46.0,33.1,61,29.84,10.0,South,4.6,-,N/A,,Mostly Cloudy,190,2012-11-18 09:56:00
2:56 AM,43.0,30.9,62,29.85,10.0,East,5.8,-,N/A,,Overcast,90,2012-11-18 10:56:00
3:56 AM,43.0,32.0,65,29.85,10.0,North,6.9,-,N/A,,Overcast,360,2012-11-18 11:56:00
4:56 AM,43.0,32.0,65,29.86,10.0,Calm,Calm,-,N/A,,Overcast,0,2012-11-18 12:56:00
5:56 AM,43.0,32.0,65,29.86,10.0,East,4.6,-,N/A,,Mostly Cloudy,100,2012-11-18 13:56:00
6:56 AM,41.0,30.9,67,29.87,10.0,NE,5.8,-,N/A,,Scattered Clouds,40,2012-11-18 14:56:00
7:56 AM,48.9,32.0,52,29.88,10.0,East,4.6,-,N/A,,Partly Cloudy,90,2012-11-18 15:56:00
8:56 AM,51.1,30.9,46,29.89,10.0,Calm,Calm,-,N/A,,Mostly Cloudy,0,2012-11-18 16:56:00
9:56 AM,53.1,34.0,48,29.92,10.0,Calm,Calm,-,N/A,,Clear,0,2012-11-18 17:56:00
10:56 AM,57.0,33.1,40,29.91,10.0,Calm,Calm,-,N/A,,Clear,0,2012-11-18 18:56:00
11:02 AM,57.2,33.8,41,29.99,10.0,Variable,4.6,-,N/A,,Mostly Cloudy,0,2012-11-18 19:02:00
11:56 AM,60.1,30.0,32,29.89,10.0,South,9.2,-,N/A,,Mostly Cloudy,190,2012-11-18 19:56:00
12:56 PM,60.1,28.9,31,29.88,10.0,WNW,5.8,-,N/A,,Mostly Cloudy,290,2012-11-18 20:56:00
1:56 PM,60.1,23.0,24,29.88,10.0,WNW,17.3,21.9,N/A,,Mostly Cloudy,290,2012-11-18 21:56:00
2:56 PM,57.9,24.1,27,29.88,10.0,West,12.7,-,N/A,,Mostly Cloudy,270,2012-11-18 22:56:00
3:56 PM,55.9,27.0,33,29.90,10.0,WNW,10.4,-,N/A,,Mostly Cloudy,290,2012-11-18 23:56:00
4:56 PM,55.0,28.0,35,29.91,10.0,WNW,11.5,-,N/A,,Mostly Cloudy,290,2012-11-19 00:56:00
5:56 PM,54.0,28.0,37,29.93,10.0,NW,4.6,-,N/A,,Mostly Cloudy,310,2012-11-19 01:56:00
6:56 PM,52.0,30.9,45,29.96,10.0,Variable,3.5,-,N/A,,Mostly Cloudy,0,2012-11-19 02:56:00
7:56 PM,51.1,30.9,46,29.98,10.0,WNW,4.6,-,N/A,,Overcast,300,2012-11-19 03:56:00
8:56 PM,50.0,30.0,46,29.99,10.0,ENE,4.6,-,N/A,,Overcast,60,2012-11-19 04:56:00
9:56 PM,48.0,30.0,50,30.01,10.0,NNE,5.8,-,N/A,,Overcast,20,2012-11-19 05:56:00
10:56 PM,48.0,30.9,52,30.01,10.0,NNE,3.5,-,N/A,,Overcast,20,2012-11-19 06:56:00
11:56 PM,46.9,30.9,54,30.02,10.0,NNE,5.8,-,N/A,,Overcast,20,2012-11-19 07:56:00